Weather in Yambol

Bulgaria     42°29′20″N   26°29′50″E
temp.,
°C
wind,
m/s
gust,
m/s
humid.,
%
clouds,
%
prec.,
mm/h
press.,
hPa
HPBL,
m
17 may, tue
tue1700:00+13ese11815 0.0 101911
03:00+12w11845 0.0 101911
06:00+12wsw22845 0.0 101810
09:00+18wsw23754 0.0 1018253
12:00+23wsw33595 0.0 1017689
15:00+25ssw33485 0.0 10151415
18:00+25sw235419 0.0 10131483
21:00+19s227316 0.0 101322
18 may, wed
wed1800:00+16sw11806 0.0 101311
03:00+16w1184100 0.0 101211
06:00+15wsw118594 0.0 101212
09:00+20wnw387191 0.1 1014676
12:00+10ne91488100 1.9 1019677
15:00+9ne61377100 2.3 1022814
18:00+10nne3107793 0.8 1024762
21:00+9nnw227347 0.8 102612
19 may, thu
thu1900:00+7nne22745 0.0 102823
03:00+7nnw33745 0.0 102930
06:00+6nw22771 0.0 103018
09:00+13n48581 0.0 10301127
12:00+17nne574838 0.0 10301989
15:00+19ne574424 0.0 10282301
18:00+18ne575335 0.0 10271908
21:00+11e33774 0.0 102936
20 may, fri
fri2000:00+8ne11871 0.0 103010
03:00+8n11840 0.0 102910
06:00+7w11834 0.0 102910
09:00+14wnw11630 0.0 1029268
12:00+20ene35450 0.0 10281627
15:00+21e45420 0.0 10251645
18:00+20ese54571 0.0 1024735
21:00+12ene33742 0.0 102523
21 may, sat
sat2100:00+9ene117939 0.0 102410
03:00+8nne118192 0.0 102210
06:00+8wsw007997 0.0 102110
09:00+15sw22634 0.0 1020254
12:00+20wsw22530 0.0 1018728
15:00+24ssw22435 0.0 1016990
18:00+24sw12450 0.0 1014918
21:00+17s11590 0.0 101311